SWR340 SPQU-SPJC

Flight info

Callsign SWR340
Flight time 0h 48m
Altitude 40000
Route VUPKO UT323 SCO
Aircraft A359/H-SDE2E3GHIJ3J4J5LM1ORWXY/LB1D1

Departure

Time 2026-04-20 21:12
Airport Rodríguez Ballón International Airport (SPQU)

Arrival

Time 2026-04-20 22:00
Airport Jorge Chávez International Airport (SPJC)
Time Latitude Longitude Altitude Speed Heading
2026-04-20 20:54 -16.34377 -71.56841 8354 ft 0 kts 217°
2026-04-20 21:06 -16.34377 -71.56840 8350 ft 1 kts 217°
2026-04-20 21:06 -16.34362 -71.56830 8355 ft 4 kts 192°
2026-04-20 21:06 -16.34345 -71.56833 8354 ft 4 kts 104°
2026-04-20 21:06 -16.34343 -71.56860 8351 ft 4 kts 93°
2026-04-20 21:07 -16.34342 -71.56871 8351 ft 0 kts 93°
2026-04-20 21:08 -16.34342 -71.56870 8350 ft 2 kts 93°
2026-04-20 21:09 -16.34344 -71.56847 8353 ft 9 kts 92°
2026-04-20 21:09 -16.34349 -71.56739 8352 ft 21 kts 93°
2026-04-20 21:09 -16.34358 -71.56553 8355 ft 31 kts 93°
2026-04-20 21:09 -16.34371 -71.56310 8366 ft 33 kts 93°
2026-04-20 21:10 -16.34380 -71.56094 8385 ft 26 kts 81°
2026-04-20 21:10 -16.34304 -71.55954 8397 ft 19 kts 56°
2026-04-20 21:10 -16.34241 -71.55853 8409 ft 13 kts 59°
2026-04-20 21:10 -16.34204 -71.55784 8419 ft 10 kts 61°
2026-04-20 21:11 -16.34158 -71.55725 8422 ft 11 kts 42°
2026-04-20 21:11 -16.34129 -71.55741 8422 ft 3 kts 274°
2026-04-20 21:11 -16.34128 -71.55752 8423 ft 12 kts 273°
2026-04-20 21:11 -16.34111 -71.56083 8419 ft 80 kts 273°
2026-04-20 21:12 -16.34068 -71.56895 8388 ft 144 kts 273°
2026-04-20 21:12 -16.34005 -71.58106 8617 ft 174 kts 272°
2026-04-20 21:12 -16.33938 -71.59324 9595 ft 168 kts 274°
2026-04-20 21:12 -16.33870 -71.60601 9964 ft 186 kts 273°
2026-04-20 21:13 -16.33869 -71.62019 10173 ft 207 kts 264°
2026-04-20 21:13 -16.34469 -71.63451 10326 ft 232 kts 228°
2026-04-20 21:13 -16.35851 -71.64453 10541 ft 254 kts 210°
2026-04-20 21:13 -16.37384 -71.65524 10712 ft 277 kts 224°
2026-04-20 21:14 -16.38640 -71.67136 10973 ft 297 kts 236°
2026-04-20 21:14 -16.39809 -71.69004 11236 ft 317 kts 238°
2026-04-20 21:14 -16.41009 -71.70980 11497 ft 336 kts 238°
2026-04-20 21:14 -16.42289 -71.73089 11742 ft 353 kts 238°
2026-04-20 21:15 -16.43627 -71.75290 12020 ft 366 kts 237°
2026-04-20 21:15 -16.45006 -71.77553 12510 ft 372 kts 237°
2026-04-20 21:15 -16.46403 -71.79847 12997 ft 377 kts 237°
2026-04-20 21:15 -16.47686 -71.82250 13500 ft 381 kts 245°
2026-04-20 21:16 -16.48463 -71.84872 13985 ft 386 kts 258°
2026-04-20 21:16 -16.48582 -71.87707 14468 ft 390 kts 274°
2026-04-20 21:16 -16.48007 -71.90435 14930 ft 393 kts 289°
2026-04-20 21:16 -16.46881 -71.93045 15436 ft 396 kts 297°
2026-04-20 21:17 -16.45416 -71.95478 15931 ft 397 kts 304°
2026-04-20 21:17 -16.43802 -71.97816 16407 ft 399 kts 306°
2026-04-20 21:17 -16.42129 -72.00135 16816 ft 402 kts 307°
2026-04-20 21:17 -16.38029 -72.05664 18003 ft 406 kts 308°
2026-04-20 21:18 -16.31019 -72.14995 19710 ft 411 kts 308°
2026-04-20 21:18 -16.23834 -72.24526 21088 ft 426 kts 308°
2026-04-20 21:18 -16.16504 -72.34234 22717 ft 431 kts 308°
2026-04-20 21:18 -16.09004 -72.44154 24182 ft 441 kts 308°
2026-04-20 21:19 -16.01421 -72.54169 25539 ft 450 kts 308°
2026-04-20 21:19 -15.93575 -72.64519 26995 ft 462 kts 308°
2026-04-20 21:19 -15.85504 -72.75149 28537 ft 473 kts 308°
2026-04-20 21:20 -15.68895 -72.96976 31104 ft 492 kts 308°
2026-04-20 21:20 -15.60353 -73.08177 32260 ft 497 kts 308°
2026-04-20 21:20 -15.51780 -73.19402 33639 ft 494 kts 308°
2026-04-20 21:20 -15.43314 -73.30470 34888 ft 489 kts 308°
2026-04-20 21:21 -15.35346 -73.40872 36108 ft 482 kts 309°
2026-04-20 21:21 -15.31155 -73.46338 36465 ft 484 kts 309°
2026-04-20 21:21 -15.29060 -73.49070 36767 ft 482 kts 309°
2026-04-20 21:22 -15.26975 -73.51787 37045 ft 481 kts 309°
2026-04-20 21:22 -15.24917 -73.54467 37320 ft 480 kts 309°
2026-04-20 21:22 -15.22843 -73.57168 37587 ft 478 kts 309°
2026-04-20 21:22 -15.20770 -73.59866 37851 ft 477 kts 309°
2026-04-20 21:23 -15.18702 -73.62557 38082 ft 476 kts 309°
2026-04-20 21:23 -15.16635 -73.65244 38298 ft 476 kts 309°
2026-04-20 21:23 -15.14579 -73.67919 38656 ft 472 kts 310°
2026-04-20 21:23 -15.12539 -73.70572 39008 ft 468 kts 310°
2026-04-20 21:24 -15.10540 -73.73169 39172 ft 467 kts 310°
2026-04-20 21:24 -15.08511 -73.75805 39289 ft 468 kts 310°
2026-04-20 21:24 -15.06478 -73.78444 39399 ft 468 kts 310°
2026-04-20 21:25 -14.99801 -73.87107 39680 ft 469 kts 310°
2026-04-20 21:25 -14.91670 -73.97645 40139 ft 469 kts 310°
2026-04-20 21:25 -14.83528 -74.08182 40142 ft 468 kts 310°
2026-04-20 21:26 -14.67370 -74.29052 40149 ft 468 kts 310°
2026-04-20 21:26 -14.51103 -74.50006 40138 ft 467 kts 310°
2026-04-20 21:27 -14.34785 -74.70971 40120 ft 470 kts 310°
2026-04-20 21:27 -14.25830 -74.82456 40104 ft 469 kts 310°
2026-04-20 21:28 -14.21731 -74.87707 40109 ft 470 kts 310°
2026-04-20 21:28 -14.17635 -74.92950 40115 ft 470 kts 310°
2026-04-20 21:29 -14.13560 -74.98163 40133 ft 470 kts 310°
2026-04-20 21:29 -14.09462 -75.03403 40139 ft 470 kts 310°
2026-04-20 21:30 -14.05348 -75.08661 40112 ft 472 kts 311°
2026-04-20 21:30 -14.01228 -75.13921 40142 ft 471 kts 311°
2026-04-20 21:31 -13.97108 -75.19178 40137 ft 471 kts 311°
2026-04-20 21:31 -13.93013 -75.24399 40114 ft 471 kts 311°
2026-04-20 21:32 -13.88904 -75.29639 40136 ft 470 kts 311°
2026-04-20 21:32 -13.84781 -75.34888 40131 ft 471 kts 311°
2026-04-20 21:33 -13.80656 -75.40139 40094 ft 471 kts 311°
2026-04-20 21:33 -13.76547 -75.45365 40119 ft 471 kts 311°
2026-04-20 21:34 -13.72410 -75.50623 40081 ft 473 kts 311°
2026-04-20 21:34 -13.68355 -75.55776 40083 ft 473 kts 311°
2026-04-20 21:35 -13.64206 -75.61045 40105 ft 474 kts 311°
2026-04-20 21:35 -13.60084 -75.66275 40060 ft 474 kts 311°
2026-04-20 21:35 -13.52623 -75.75736 39762 ft 472 kts 311°
2026-04-20 21:36 -13.44327 -75.86242 38820 ft 474 kts 311°
2026-04-20 21:36 -13.35949 -75.96836 37746 ft 480 kts 311°
2026-04-20 21:36 -13.27455 -76.07566 36552 ft 480 kts 310°
2026-04-20 21:36 -13.19137 -76.18060 33887 ft 482 kts 309°
2026-04-20 21:37 -13.10590 -76.28832 30566 ft 492 kts 308°
2026-04-20 21:37 -13.05835 -76.34820 28737 ft 494 kts 309°
2026-04-20 21:37 -13.03673 -76.37541 28048 ft 490 kts 309°
2026-04-20 21:37 -13.01519 -76.40251 27402 ft 487 kts 309°
2026-04-20 21:38 -12.99383 -76.42937 26761 ft 484 kts 309°
2026-04-20 21:38 -12.97259 -76.45607 26151 ft 481 kts 309°
2026-04-20 21:38 -12.95151 -76.48257 25518 ft 478 kts 309°
2026-04-20 21:38 -12.93052 -76.50895 24874 ft 475 kts 309°
2026-04-20 21:39 -12.90991 -76.53483 24260 ft 472 kts 309°
2026-04-20 21:39 -12.88921 -76.56083 23650 ft 469 kts 309°
2026-04-20 21:39 -12.86865 -76.58665 22959 ft 465 kts 309°
2026-04-20 21:39 -12.84830 -76.61220 22349 ft 459 kts 309°
2026-04-20 21:40 -12.82820 -76.63741 21763 ft 453 kts 309°
2026-04-20 21:40 -12.80834 -76.66234 21156 ft 448 kts 309°
2026-04-20 21:40 -12.78873 -76.68692 20564 ft 443 kts 309°
2026-04-20 21:40 -12.76929 -76.71130 20001 ft 438 kts 309°
2026-04-20 21:41 -12.75037 -76.73502 19436 ft 433 kts 310°
2026-04-20 21:41 -12.73136 -76.75884 18862 ft 429 kts 310°
2026-04-20 21:41 -12.71255 -76.78241 18379 ft 424 kts 310°
2026-04-20 21:41 -12.69427 -76.80531 18259 ft 407 kts 310°
2026-04-20 21:42 -12.67661 -76.82743 18105 ft 393 kts 310°
2026-04-20 21:42 -12.65962 -76.84870 17941 ft 379 kts 310°
2026-04-20 21:42 -12.64318 -76.86927 17761 ft 367 kts 310°
2026-04-20 21:42 -12.62730 -76.88915 17606 ft 354 kts 310°
2026-04-20 21:43 -12.61197 -76.90833 17446 ft 342 kts 310°
2026-04-20 21:43 -12.59712 -76.92691 17301 ft 331 kts 310°
2026-04-20 21:43 -12.58232 -76.94459 16995 ft 324 kts 315°
2026-04-20 21:43 -12.56459 -76.95811 16551 ft 322 kts 331°
2026-04-20 21:44 -12.54472 -76.96846 16179 ft 318 kts 334°
2026-04-20 21:44 -12.52486 -76.97819 15860 ft 314 kts 334°
2026-04-20 21:44 -12.50527 -76.98777 15542 ft 309 kts 334°
2026-04-20 21:44 -12.48610 -76.99721 15231 ft 304 kts 333°
2026-04-20 21:45 -12.46722 -77.00655 14926 ft 299 kts 333°
2026-04-20 21:45 -12.44861 -77.01577 14616 ft 295 kts 333°
2026-04-20 21:45 -12.43029 -77.02486 14318 ft 290 kts 333°
2026-04-20 21:45 -12.41250 -77.03370 14024 ft 286 kts 332°
2026-04-20 21:46 -12.39461 -77.04258 13741 ft 284 kts 332°
2026-04-20 21:46 -12.37686 -77.05141 13431 ft 284 kts 332°
2026-04-20 21:46 -12.35908 -77.06025 13146 ft 284 kts 333°
2026-04-20 21:46 -12.34134 -77.06907 12835 ft 282 kts 332°
2026-04-20 21:47 -12.32373 -77.07782 12550 ft 281 kts 332°
2026-04-20 21:47 -12.30612 -77.08657 12262 ft 280 kts 333°
2026-04-20 21:47 -12.28857 -77.09528 11972 ft 280 kts 333°
2026-04-20 21:47 -12.27122 -77.10391 11686 ft 280 kts 333°
2026-04-20 21:48 -12.25360 -77.11266 11393 ft 280 kts 334°
2026-04-20 21:48 -12.23604 -77.12138 11105 ft 280 kts 334°
2026-04-20 21:48 -12.21844 -77.13012 10802 ft 280 kts 334°
2026-04-20 21:48 -12.20112 -77.13871 10520 ft 280 kts 334°
2026-04-20 21:49 -12.18355 -77.14743 10220 ft 280 kts 334°
2026-04-20 21:49 -12.16596 -77.15616 9933 ft 281 kts 335°
2026-04-20 21:49 -12.14801 -77.16505 9714 ft 295 kts 335°
2026-04-20 21:49 -12.12926 -77.17433 9611 ft 300 kts 335°
2026-04-20 21:50 -12.11070 -77.18354 9435 ft 291 kts 335°
2026-04-20 21:50 -12.09312 -77.19227 9268 ft 280 kts 335°
2026-04-20 21:50 -12.07574 -77.20095 8948 ft 277 kts 335°
2026-04-20 21:50 -12.05843 -77.20952 8542 ft 276 kts 335°
2026-04-20 21:51 -12.04115 -77.21806 8182 ft 275 kts 335°
2026-04-20 21:51 -12.02403 -77.22654 7867 ft 271 kts 335°
2026-04-20 21:51 -12.00724 -77.23492 7588 ft 267 kts 334°
2026-04-20 21:51 -11.99073 -77.24350 7305 ft 266 kts 333°
2026-04-20 21:52 -11.97431 -77.25213 7036 ft 264 kts 333°
2026-04-20 21:52 -11.95804 -77.26065 6753 ft 262 kts 333°
2026-04-20 21:52 -11.94185 -77.26912 6495 ft 260 kts 333°
2026-04-20 21:52 -11.92595 -77.27742 6222 ft 259 kts 333°
2026-04-20 21:53 -11.90987 -77.28566 5926 ft 257 kts 334°
2026-04-20 21:53 -11.89377 -77.29353 5672 ft 256 kts 334°
2026-04-20 21:53 -11.87771 -77.30134 5404 ft 255 kts 334°
2026-04-20 21:53 -11.86112 -77.30737 5137 ft 254 kts 351°
2026-04-20 21:54 -11.84380 -77.30534 4971 ft 253 kts 23°
2026-04-20 21:54 -11.83027 -77.29423 4857 ft 253 kts 55°
2026-04-20 21:54 -11.82180 -77.27879 4746 ft 244 kts 64°
2026-04-20 21:54 -11.81474 -77.26351 4620 ft 233 kts 65°
2026-04-20 21:55 -11.81103 -77.24819 4466 ft 221 kts 96°
2026-04-20 21:55 -11.81663 -77.23406 4328 ft 217 kts 127°
2026-04-20 21:55 -11.82697 -77.22294 4063 ft 216 kts 145°
2026-04-20 21:55 -11.84013 -77.21558 3741 ft 215 kts 157°
2026-04-20 21:56 -11.85383 -77.20959 3431 ft 213 kts 156°
2026-04-20 21:56 -11.86710 -77.20293 3101 ft 210 kts 154°
2026-04-20 21:56 -11.88009 -77.19636 2819 ft 206 kts 155°
2026-04-20 21:56 -11.89274 -77.19019 2556 ft 196 kts 155°
2026-04-20 21:57 -11.90457 -77.18435 2308 ft 186 kts 155°
2026-04-20 21:57 -11.91594 -77.17871 2105 ft 173 kts 155°
2026-04-20 21:57 -11.92640 -77.17353 1878 ft 161 kts 155°
2026-04-20 21:57 -11.93595 -77.16884 1700 ft 148 kts 155°
2026-04-20 21:58 -11.94496 -77.16436 1508 ft 141 kts 154°
2026-04-20 21:58 -11.95379 -77.15996 1304 ft 141 kts 154°
2026-04-20 21:58 -11.96253 -77.15564 1108 ft 138 kts 155°
2026-04-20 21:58 -11.97114 -77.15138 912 ft 137 kts 154°
2026-04-20 21:59 -11.97978 -77.14708 736 ft 137 kts 156°
2026-04-20 21:59 -11.98831 -77.14286 561 ft 136 kts 155°
2026-04-20 21:59 -11.99397 -77.14006 447 ft 138 kts 153°
2026-04-20 21:59 -12.00551 -77.13426 203 ft 138 kts 156°
2026-04-20 22:00 -12.01403 -77.13007 44 ft 133 kts 157°
2026-04-20 22:00 -12.02096 -77.12672 49 ft 82 kts 154°
2026-04-20 22:00 -12.02490 -77.12476 48 ft 55 kts 154°
2026-04-20 22:00 -12.02669 -77.12365 50 ft 38 kts 136°
2026-04-20 22:01 -12.02771 -77.12217 58 ft 15 kts 96°
2026-04-20 22:01 -12.02720 -77.12189 63 ft 9 kts 338°
2026-04-20 22:01 -12.02692 -77.12202 62 ft 0 kts 335°
2026-04-20 22:02 -12.02685 -77.12205 61 ft 4 kts 335°
2026-04-20 22:02 -12.02637 -77.12229 62 ft 12 kts 334°
2026-04-20 22:02 -12.02536 -77.12279 58 ft 20 kts 334°
2026-04-20 22:03 -12.02387 -77.12352 54 ft 27 kts 334°
2026-04-20 22:03 -12.02239 -77.12415 52 ft 14 kts
2026-04-20 22:03 -12.02186 -77.12347 53 ft 12 kts 64°
2026-04-20 22:03 -12.02151 -77.12274 53 ft 12 kts 64°
2026-04-20 22:04 -12.02110 -77.12188 57 ft 14 kts 64°
2026-04-20 22:04 -12.02064 -77.12091 63 ft 16 kts 64°
2026-04-20 22:04 -12.02010 -77.11978 64 ft 20 kts 64°
2026-04-20 22:04 -12.01947 -77.11845 62 ft 15 kts 68°
2026-04-20 22:05 -12.01997 -77.11781 65 ft 12 kts 154°
2026-04-20 22:05 -12.02072 -77.11744 68 ft 12 kts 154°
2026-04-20 22:05 -12.02145 -77.11708 85 ft 12 kts 154°
2026-04-20 22:05 -12.02220 -77.11672 85 ft 13 kts 154°
2026-04-20 22:06 -12.02301 -77.11633 89 ft 13 kts 154°
2026-04-20 22:06 -12.02391 -77.11588 90 ft 16 kts 154°
2026-04-20 22:06 -12.02497 -77.11535 89 ft 18 kts 154°
2026-04-20 22:06 -12.02609 -77.11481 90 ft 14 kts 155°
2026-04-20 22:07 -12.02674 -77.11521 90 ft 13 kts 247°
2026-04-20 22:07 -12.02705 -77.11612 92 ft 14 kts 244°
2026-04-20 22:07 -12.02734 -77.11672 90 ft 0 kts 244°
2026-04-20 22:07 -12.02734 -77.11674 90 ft 0 kts 244°